Dewpoint
57 57 57 57 58 58 59 59 59 61 61 62 62 62 62 62 61 58 59 61 61 63 62 62 61 58 58 59 61 60 60 62 61
58 57 58 58 57 58 59 59 60 61 61 62 62 62 61 59 59 58 61 62 62 63 62 63 63 63 62 61 61 62 63 60 60
59 58 58 59 59 59 60 60 60 60 61 61 62 62 61 59 59 59 61 62 62 62 62 63 63 64 64 64 64 62 62 63 62
60 60 60 60 61 61 61 60 60 60 62 63 63 62 61 60 60 58 58 60 60 61 60 60 61 61 61 63 63 63 64 64 64
61 62 61 61 61 62 62 62 62 62 63 62 60 60 59 59 57 54 56 57 58 58 58 59 60 62 61 60 60 61 61 61 61
63 62 62 62 62 62 63 63 63 63 62 60 58 57 56 51 51 52 54 54 56 57 58 59 58 57 57 58 58 57 57 57 58
60 60 61 62 62 62 62 60 59 60 60 59 55 52 47 47 49 50 49 50 51 56 57 56 54 54 55 54 53 53 53 54 54
58 58 58 59 59 60 61 59 59 51 47 46 45 42 40 37 46 49 49 52 54 56 53 52 51 51 50 50 50 50 51 52 52
55 58 57 58 57 59 59 55 49 47 42 39 36 35 33 29 44 46 48 48 53 52 51 48 47 46 46 45 45 46 47 47 47
55 56 56 57 57 57 54 49 45 41 38 33 28 28 28 26 39 47 50 50 49 48 45 43 42 41 41 40 41 42 43 44 45
56 55 56 54 50 46 43 43 41 35 30 29 27 26 26 27 29 43 47 45 44 42 41 39 39 38 38 39 40 41 42 42 43
56 56 54 50 47 43 41 37 32 32 30 28 26 23 23 23 26 37 41 41 39 35 34 32 33 33 35 39 40 40 40 40 41
56 54 50 44 43 40 35 34 32 30 28 27 25 25 26 25 27 29 31 34 33 34 28 25 25 26 28 34 37 39 39 40 40
53 47 44 42 38 35 32 29 28 26 26 23 20 25 26 26 25 26 25 25 26 26 25 22 21 21 24 28 33 36 38 38 39
50 45 42 37 34 32 32 28 26 25 23 21 22 25 29 26 27 25 24 25 23 23 20 19 19 20 22 26 28 31 35 36 37
41 38 35 34 32 30 27 26 27 24 23 23 23 25 28 28 26 27 25 24 22 19 17 17 18 19 20 21 24 28 30 33 36
36 34 33 29 27 25 25 27 24 24 22 18 23 22 22 24 24 28 22 21 19 17 16 17 17 17 19 21 23 24 27 30 33
40 37 35 35 34 31 28 25 25 23 22 19 19 16 19 14 20 23 22 16 19 16 17 19 18 17 18 21 22 22 25 27 31
38 37 36 33 30 26 23 23 21 24 20 20 19 19 17 12 8 16 17 17 16 17 18 17 18 17 18 21 23 21 23 26 30
34 31 28 28 25 20 21 20 18 19 20 19 17 16 17 16 15 15 15 17 18 18 19 17 17 18 18 20 21 19 23 26 29
Wind_Speed
10 10 10 10 10 9 10 9 9 8 7 6 5 4 5 9 11 6 6 9 8 7 6 5 5 6 7 7 8 8 9 9 8
11 11 11 10 10 10 9 8 7 6 6 6 5 3 7 11 9 8 12 9 8 7 7 7 8 7 6 8 9 10 10 9 10
11 11 10 10 10 9 8 6 5 4 4 4 3 2 5 9 5 9 12 11 9 9 11 11 13 14 13 8 8 10 11 11 11
11 10 9 9 8 6 5 4 4 4 3 2 2 4 7 8 7 12 9 13 11 11 12 11 12 13 12 12 15 17 15 9 9
12 10 9 8 7 5 4 4 3 3 3 1 3 6 9 10 6 11 11 12 9 9 9 10 11 14 14 14 14 15 15 15 15
13 11 11 9 7 6 5 4 3 5 5 5 5 6 7 8 13 10 12 10 8 9 10 12 12 12 13 13 14 14 14 14 15
14 14 12 9 8 7 7 6 7 6 7 7 4 4 8 8 11 10 11 9 6 8 11 12 12 12 13 13 13 14 13 13 14
14 12 11 10 11 9 10 8 3 4 7 5 6 8 10 10 10 10 11 9 8 10 11 12 12 12 11 11 12 13 13 13 13
12 13 13 13 12 11 8 8 8 3 3 6 8 9 8 8 8 10 10 6 8 9 10 10 11 11 11 11 11 11 11 13 14
13 10 11 8 6 8 7 7 7 5 7 6 5 4 4 5 10 9 12 10 9 9 9 10 10 10 11 11 11 12 11 12 14
11 11 9 10 11 10 8 7 6 5 6 6 6 4 6 5 6 9 11 10 8 8 8 9 10 10 11 12 12 12 12 12 14
12 10 12 9 11 12 8 6 6 5 5 5 6 4 5 5 4 9 9 8 7 5 6 8 9 10 12 12 12 12 13 13 14
15 14 12 10 6 10 11 6 4 5 5 5 5 3 5 3 4 5 8 7 4 3 4 7 10 9 12 12 13 13 12 14 14
14 15 13 11 9 9 10 8 6 5 6 7 3 3 3 2 4 6 7 4 5 2 5 7 11 11 12 12 14 12 13 14 15
13 14 12 13 12 10 8 7 9 5 7 8 6 4 3 3 3 3 3 7 3 2 4 6 8 13 12 15 13 12 15 15 15
17 14 15 13 12 11 11 7 8 7 9 3 4 2 4 4 4 4 4 5 3 1 3 7 7 8 11 14 13 15 14 15 17
15 17 16 16 14 13 9 9 3 3 7 3 2 2 1 3 7 7 4 1 1 1 4 5 6 7 8 10 14 13 15 17 18
14 14 15 14 12 11 9 11 6 4 2 6 2 2 2 5 2 5 3 2 1 3 7 7 6 6 9 10 9 13 17 18 20
14 15 14 12 12 12 9 7 7 4 4 3 5 4 2 0 5 4 2 3 8 9 11 12 9 10 9 10 11 15 18 19 24
14 14 16 15 14 12 13 7 8 6 4 3 2 1 1 3 5 8 5 13 11 16 14 12 13 11 11 11 9 13 17 22 26
Wind_Direction
115 107 102 100 101 98 95 94 91 86 77 73 67 32 331 306 279 151 114 76 43 18 11 357 340 316 307 303 302 294 285 288 294
118 114 111 108 106 101 97 94 92 80 75 75 63 20 324 311 319 65 88 66 33 3 360 344 324 301 296 288 290 292 293 278 286
128 124 122 117 111 105 99 98 98 89 76 63 46 353 312 307 345 63 72 47 28 14 20 34 36 39 28 358 306 294 288 292 280
140 136 132 126 119 111 108 110 108 101 85 61 344 297 294 297 315 87 60 42 28 31 23 35 34 33 30 28 34 36 32 7 344
154 154 145 137 128 124 126 123 123 128 152 179 277 282 285 274 82 63 47 39 30 32 38 40 42 46 39 37 37 35 34 32 28
168 174 149 144 145 137 134 140 178 198 202 211 241 273 285 58 87 63 46 31 26 46 55 58 50 44 42 41 34 27 24 19 17
154 147 157 164 164 163 173 192 218 221 206 221 246 322 31 39 92 63 48 26 24 65 69 57 47 43 42 35 26 19 15 17 16
147 157 174 180 189 190 196 205 214 50 46 38 27 36 37 39 80 66 55 37 52 76 65 59 48 40 34 31 23 19 17 13 11
182 181 188 186 191 195 196 148 94 72 78 54 35 34 34 31 97 74 66 53 79 74 65 55 46 37 27 22 14 10 6 360 358
190 169 157 181 139 126 115 103 108 62 20 46 76 37 40 32 93 86 83 80 79 73 58 49 40 31 16 11 3 358 354 351 349
177 155 162 109 107 81 75 84 80 78 39 9 15 32 37 54 86 120 106 100 88 71 55 39 27 15 3 0 355 351 349 344 343
157 155 123 122 123 120 111 89 67 55 30 8 356 60 44 352 126 131 130 123 117 92 55 26 8 359 356 352 351 345 344 340 338
134 128 115 118 122 112 105 75 87 47 16 359 329 48 35 359 94 105 116 126 128 96 56 23 355 347 347 344 340 339 343 341 337
129 125 129 129 118 107 109 94 72 37 358 327 293 87 42 106 78 116 109 92 52 17 350 353 347 339 336 333 333 335 338 337 335
132 134 145 124 117 101 92 109 84 49 348 313 312 126 103 106 140 156 151 149 142 311 334 6 0 345 333 331 326 329 330 330 330
132 134 125 129 126 128 123 82 84 32 352 322 346 221 154 180 202 192 226 179 192 172 28 12 350 333 329 328 317 322 323 326 324
125 130 122 118 114 106 92 107 115 81 24 7 314 337 287 253 216 207 182 257 203 45 342 326 313 312 319 315 312 318 319 318 318
127 121 116 118 117 118 126 120 122 146 74 59 105 2 272 326 339 197 185 253 215 308 299 291 281 294 304 308 308 312 313 313 315
128 126 132 136 131 125 106 97 110 133 158 112 71 85 116 29 313 340 339 25 347 334 325 304 289 290 289 289 299 307 310 311 313
134 139 137 132 129 122 121 110 116 102 122 100 82 35 209 219 227 284 288 333 330 317 306 313 299 286 282 267 273 292 301 304 308